| time (UTC) | temp F | wind direction | speed MPH | gust MPH | rain 1hr in | rain 24hr in | rain mn in | humidity % | barometer mb |
| 20260902142359 | 86 | 211 | 2.0 | 3.0 | 0.00 | 0.00 | 0.00 | 67 | 1019.3 |
| 20260902141901 | 85 | 152 | 1.0 | 2.0 | 0.00 | 0.00 | 0.00 | 69 | 1019.3 |
| 20260902141402 | 85 | 116 | 1.0 | 3.0 | 0.00 | 0.00 | 0.00 | 67 | 1019.3 |
| 20260902140859 | 85 | 118 | 1.0 | 2.0 | 0.00 | 0.00 | 0.00 | 68 | 1019.3 |
| 20260902140400 | 85 | 127 | 2.0 | 3.0 | 0.00 | 0.00 | 0.00 | 69 | 1019.3 |
| 20260902135901 | 84 | 82 | 2.0 | 3.0 | 0.00 | 0.00 | 0.00 | 70 | 1019.3 |
| 20260902135359 | 84 | 103 | 3.0 | 4.0 | 0.00 | 0.00 | 0.00 | 72 | 1019.3 |
| 20260902134900 | 84 | 86 | 2.0 | 3.0 | 0.00 | 0.00 | 0.00 | 71 | 1019.4 |
| 20260902134359 | 83 | 90 | 2.0 | 3.0 | 0.00 | 0.00 | 0.00 | 72 | 1019.4 |
| 20260902133900 | 83 | 60 | 2.0 | 2.0 | 0.00 | 0.00 | 0.00 | 74 | 1019.4 |
| 20260902133400 | 82 | 91 | 2.0 | 3.0 | 0.00 | 0.00 | 0.00 | 75 | 1019.5 |
| 20260902132859 | 81 | 118 | 1.0 | 3.0 | 0.00 | 0.00 | 0.00 | 75 | 1019.5 |
| 20260902132401 | 80 | 141 | 0.0 | 2.0 | 0.00 | 0.00 | 0.00 | 77 | 1019.4 |
| 20260902131859 | 80 | 50 | 1.0 | 2.0 | 0.00 | 0.00 | 0.00 | 79 | 1019.4 |
| 20260902131359 | 79 | 6 | 0.0 | 1.0 | 0.00 | 0.00 | 0.00 | 80 | 1019.4 |
| 20260902130901 | 79 | 66 | 1.0 | 2.0 | 0.00 | 0.00 | 0.00 | 81 | 1019.4 |
| 20260902130402 | 78 | 73 | 0.0 | 2.0 | 0.00 | 0.00 | 0.00 | 82 | 1019.3 |
| 20260902125859 | 78 | 145 | 4.0 | 5.0 | 0.00 | 0.00 | 0.00 | 82 | 1019.4 |
| 20260902125400 | 78 | 360 | 0.0 | 0.0 | 0.00 | 0.00 | 0.00 | 84 | 1019.3 |
| 20260902124900 | 77 | 92 | 1.0 | 2.0 | 0.00 | 0.00 | 0.00 | 85 | 1019.2 |
| 20260902124359 | 76 | 64 | 0.0 | 1.0 | 0.00 | 0.00 | 0.00 | 88 | 1019.2 |
| 20260902123900 | 75 | 360 | 0.0 | 0.0 | 0.00 | 0.00 | 0.00 | 90 | 1019.2 |
| 20260902123400 | 74 | 24 | 1.0 | 2.0 | 0.00 | 0.00 | 0.00 | 92 | 1019.2 |
| 20260902122859 | 73 | 75 | 1.0 | 2.0 | 0.00 | 0.00 | 0.00 | 97 | 1019.2 |
| 20260902122359 | 73 | 14 | 1.0 | 2.0 | 0.00 | 0.00 | 0.00 | 97 | 1019.1 |
| 20260902121901 | 72 | 344 | 2.0 | 3.0 | 0.00 | 0.00 | 0.00 | 98 | 1019.1 |
| 20260902120932 | 71 | 23 | 1.0 | 4.0 | 0.00 | 0.00 | 0.00 | 99 | 1019.0 |
| 20260902120359 | 71 | 334 | 1.0 | 3.0 | 0.00 | 0.00 | 0.00 | 99 | 1019.0 |
| 20260902115900 | 70 | 38 | 0.0 | 2.0 | 0.00 | 0.00 | 0.00 | 99 | 1018.9 |
| 20260902115359 | 70 | 336 | 0.0 | 0.0 | 0.00 | 0.00 | 0.00 | 99 | 1018.9 |
| 20260902114900 | 70 | 329 | 1.0 | 2.0 | 0.00 | 0.00 | 0.00 | 99 | 1018.9 |
| 20260902114359 | 70 | 338 | 2.0 | 3.0 | 0.00 | 0.00 | 0.00 | 99 | 1018.8 |
| 20260902113900 | 70 | 343 | 1.0 | 3.0 | 0.00 | 0.00 | 0.00 | 99 | 1018.7 |
| 20260902113359 | 70 | 87 | 2.0 | 2.0 | 0.00 | 0.00 | 0.00 | 99 | 1018.7 |
| 20260902112859 | 70 | 88 | 2.0 | 2.0 | 0.00 | 0.00 | 0.00 | 99 | 1018.6 |
| 20260902112400 | 70 | 75 | 2.0 | 3.0 | 0.00 | 0.00 | 0.00 | 99 | 1018.6 |
| 20260902111902 | 70 | 333 | 0.0 | 1.0 | 0.00 | 0.00 | 0.00 | 99 | 1018.5 |
| 20260902111359 | 70 | 312 | 0.0 | 1.0 | 0.00 | 0.00 | 0.00 | 99 | 1018.4 |
| 20260902110859 | 70 | 348 | 1.0 | 1.0 | 0.00 | 0.00 | 0.00 | 99 | 1018.3 |
| 20260902110359 | 70 | 344 | 1.0 | 2.0 | 0.00 | 0.00 | 0.00 | 99 | 1018.3 |
| 20260902105859 | 70 | 345 | 1.0 | 2.0 | 0.00 | 0.00 | 0.00 | 99 | 1018.3 |
| 20260902105359 | 71 | 355 | 0.0 | 1.0 | 0.00 | 0.00 | 0.00 | 99 | 1018.2 |
| 20260902104859 | 71 | 335 | 1.0 | 2.0 | 0.00 | 0.00 | 0.00 | 99 | 1018.2 |
| 20260902104359 | 71 | 327 | 1.0 | 2.0 | 0.00 | 0.00 | 0.00 | 99 | 1018.1 |
| 20260902103859 | 70 | 294 | 1.0 | 2.0 | 0.00 | 0.00 | 0.00 | 99 | 1018.0 |
| 20260902103400 | 70 | 17 | 1.0 | 2.0 | 0.00 | 0.00 | 0.00 | 99 | 1017.9 |
| 20260902102901 | 70 | 60 | 2.0 | 3.0 | 0.00 | 0.00 | 0.00 | 99 | 1017.9 |
| 20260902102401 | 70 | 80 | 1.0 | 2.0 | 0.00 | 0.00 | 0.00 | 98 | 1017.9 |
| 20260902101859 | 70 | 329 | 1.0 | 3.0 | 0.00 | 0.00 | 0.00 | 99 | 1017.9 |
| 20260902101400 | 70 | 316 | 1.0 | 2.0 | 0.00 | 0.00 | 0.00 | 98 | 1017.8 |
| 20260902100859 | 70 | 84 | 1.0 | 3.0 | 0.00 | 0.00 | 0.00 | 98 | 1017.8 |
| 20260902100359 | 70 | 55 | 1.0 | 2.0 | 0.00 | 0.00 | 0.00 | 98 | 1017.8 |
| 20260902095859 | 70 | 55 | 1.0 | 2.0 | 0.00 | 0.00 | 0.00 | 98 | 1017.8 |
| 20260902095359 | 71 | 44 | 1.0 | 2.0 | 0.00 | 0.00 | 0.00 | 98 | 1017.8 |
| 20260902094900 | 71 | 58 | 1.0 | 2.0 | 0.00 | 0.00 | 0.00 | 98 | 1017.7 |
| 20260902094403 | 71 | 306 | 1.0 | 2.0 | 0.00 | 0.00 | 0.00 | 98 | 1017.6 |
| 20260902093859 | 71 | 327 | 0.0 | 1.0 | 0.00 | 0.00 | 0.00 | 98 | 1017.6 |
| 20260902093359 | 71 | 331 | 1.0 | 2.0 | 0.00 | 0.00 | 0.00 | 98 | 1017.6 |
| 20260902092900 | 71 | 356 | 1.0 | 2.0 | 0.00 | 0.00 | 0.00 | 98 | 1017.6 |
| 20260902092359 | 71 | 360 | 0.0 | 1.0 | 0.00 | 0.00 | 0.00 | 98 | 1017.6 |
| 20260902091900 | 71 | 310 | 1.0 | 3.0 | 0.00 | 0.00 | 0.00 | 98 | 1017.6 |
| 20260902091400 | 71 | 308 | 1.0 | 3.0 | 0.00 | 0.00 | 0.00 | 97 | 1017.5 |
| 20260902090859 | 71 | 2 | 0.0 | 2.0 | 0.00 | 0.00 | 0.00 | 97 | 1017.6 |
| 20260902090400 | 71 | 329 | 1.0 | 2.0 | 0.00 | 0.00 | 0.00 | 97 | 1017.6 |
| 20260902085859 | 71 | 324 | 1.0 | 3.0 | 0.00 | 0.00 | 0.00 | 97 | 1017.6 |
| 20260902085400 | 71 | 341 | 0.0 | 1.0 | 0.00 | 0.00 | 0.00 | 97 | 1017.5 |
| 20260902084901 | 71 | 22 | 1.0 | 2.0 | 0.00 | 0.00 | 0.00 | 97 | 1017.5 |
| 20260902084400 | 71 | 352 | 0.0 | 2.0 | 0.00 | 0.00 | 0.00 | 97 | 1017.5 |
| 20260902083859 | 71 | 24 | 1.0 | 2.0 | 0.00 | 0.00 | 0.00 | 97 | 1017.5 |
| 20260902083401 | 71 | 338 | 1.0 | 2.0 | 0.00 | 0.00 | 0.00 | 96 | 1017.5 |
| 20260902082859 | 71 | 171 | 0.0 | 1.0 | 0.00 | 0.00 | 0.00 | 96 | 1017.5 |
| 20260902082359 | 71 | 354 | 0.0 | 2.0 | 0.00 | 0.00 | 0.00 | 96 | 1017.4 |
| 20260902081900 | 71 | 342 | 0.0 | 2.0 | 0.00 | 0.00 | 0.00 | 96 | 1017.4 |
| 20260902081359 | 71 | 308 | 1.0 | 2.0 | 0.00 | 0.00 | 0.00 | 96 | 1017.4 |
| 20260902080900 | 71 | 349 | 2.0 | 2.0 | 0.00 | 0.00 | 0.00 | 97 | 1017.3 |
| 20260902080359 | 71 | 16 | 0.0 | 2.0 | 0.00 | 0.00 | 0.00 | 96 | 1017.3 |
| 20260902075859 | 71 | 345 | 1.0 | 2.0 | 0.00 | 0.00 | 0.00 | 96 | 1017.3 |
| 20260902075400 | 71 | 287 | 1.0 | 2.0 | 0.00 | 0.00 | 0.00 | 96 | 1017.3 |
| 20260902074859 | 71 | 358 | 1.0 | 3.0 | 0.00 | 0.00 | 0.00 | 96 | 1017.3 |
| 20260902074359 | 71 | 56 | 2.0 | 3.0 | 0.00 | 0.00 | 0.00 | 96 | 1017.3 |
| 20260902073900 | 72 | 87 | 0.0 | 2.0 | 0.00 | 0.00 | 0.00 | 96 | 1017.3 |
| 20260902073401 | 72 | 57 | 1.0 | 2.0 | 0.00 | 0.00 | 0.00 | 96 | 1017.3 |
| 20260902072859 | 72 | 70 | 1.0 | 2.0 | 0.00 | 0.00 | 0.00 | 95 | 1017.3 |
| 20260902072359 | 72 | 324 | 1.0 | 2.0 | 0.00 | 0.00 | 0.00 | 95 | 1017.3 |
| 20260902071900 | 72 | 339 | 0.0 | 3.0 | 0.00 | 0.00 | 0.00 | 95 | 1017.3 |
| 20260902071400 | 72 | 8 | 0.0 | 2.0 | 0.00 | 0.00 | 0.00 | 95 | 1017.3 |
| 20260902070859 | 72 | 351 | 1.0 | 3.0 | 0.00 | 0.00 | 0.00 | 94 | 1017.3 |
| 20260902070359 | 72 | 300 | 1.0 | 1.0 | 0.00 | 0.00 | 0.00 | 95 | 1017.3 |
| 20260902065859 | 72 | 287 | 1.0 | 2.0 | 0.00 | 0.00 | 0.00 | 95 | 1017.4 |
| 20260902065400 | 72 | 340 | 0.0 | 1.0 | 0.00 | 0.00 | 0.00 | 95 | 1017.4 |
| 20260902064859 | 72 | 337 | 1.0 | 1.0 | 0.00 | 0.00 | 0.00 | 94 | 1017.4 |
| 20260902064359 | 73 | 71 | 1.0 | 2.0 | 0.00 | 0.00 | 0.00 | 94 | 1017.4 |
| 20260902063900 | 73 | 336 | 1.0 | 2.0 | 0.00 | 0.00 | 0.00 | 94 | 1017.3 |
| 20260902063359 | 73 | 349 | 1.0 | 2.0 | 0.00 | 0.00 | 0.00 | 94 | 1017.4 |
| 20260902062859 | 73 | 4 | 1.0 | 2.0 | 0.00 | 0.00 | 0.00 | 93 | 1017.4 |
| 20260902062400 | 73 | 263 | 0.0 | 2.0 | 0.00 | 0.00 | 0.00 | 94 | 1017.4 |
| 20260902061900 | 73 | 318 | 1.0 | 2.0 | 0.00 | 0.00 | 0.00 | 94 | 1017.4 |
| 20260902061401 | 73 | 109 | 1.0 | 2.0 | 0.00 | 0.00 | 0.00 | 93 | 1017.4 |
| 20260902060859 | 73 | 130 | 1.0 | 3.0 | 0.00 | 0.00 | 0.00 | 93 | 1017.4 |
| 20260902060401 | 73 | 284 | 2.0 | 3.0 | 0.00 | 0.00 | 0.00 | 93 | 1017.3 |
| 20260902055859 | 73 | 295 | 0.0 | 2.0 | 0.00 | 0.00 | 0.00 | 94 | 1017.4 |
| 20260902055401 | 73 | 314 | 1.0 | 2.0 | 0.00 | 0.00 | 0.00 | 93 | 1017.4 |
| 20260902054900 | 73 | 146 | 2.0 | 4.0 | 0.00 | 0.00 | 0.00 | 93 | 1017.4 |
| 20260902054359 | 73 | 131 | 1.0 | 2.0 | 0.00 | 0.00 | 0.00 | 92 | 1017.4 |
| 20260902053901 | 74 | 319 | 1.0 | 3.0 | 0.00 | 0.00 | 0.00 | 92 | 1017.3 |
| 20260902053400 | 74 | 354 | 1.0 | 2.0 | 0.00 | 0.00 | 0.00 | 91 | 1017.3 |
| 20260902052900 | 74 | 312 | 2.0 | 2.0 | 0.00 | 0.00 | 0.00 | 91 | 1017.3 |
| 20260902052359 | 74 | 326 | 1.0 | 2.0 | 0.00 | 0.00 | 0.00 | 91 | 1017.3 |
| 20260902051859 | 74 | 316 | 2.0 | 3.0 | 0.00 | 0.00 | 0.00 | 92 | 1017.3 |
| 20260902051400 | 74 | 316 | 1.0 | 2.0 | 0.00 | 0.00 | 0.00 | 91 | 1017.3 |
| 20260902050859 | 74 | 323 | 1.0 | 2.0 | 0.00 | 0.00 | 0.00 | 91 | 1017.3 |
| 20260902050401 | 74 | 17 | 1.0 | 2.0 | 0.00 | 0.00 | 0.00 | 90 | 1017.3 |
| 20260902045900 | 74 | 302 | 0.0 | 2.0 | 0.00 | 0.00 | 0.00 | 90 | 1017.2 |
| 20260902045400 | 74 | 314 | 1.0 | 2.0 | 0.00 | 0.00 | 0.00 | 90 | 1017.2 |
| 20260902044859 | 74 | 317 | 2.0 | 3.0 | 0.00 | 0.00 | 0.00 | 90 | 1017.2 |
| 20260902044402 | 75 | 78 | 2.0 | 3.0 | 0.00 | 0.00 | 0.00 | 89 | 1017.2 |
| 20260902043900 | 75 | 328 | 1.0 | 3.0 | 0.00 | 0.00 | 0.00 | 87 | 1017.2 |
| 20260902043403 | 75 | 281 | 0.0 | 1.0 | 0.00 | 0.00 | 0.00 | 87 | 1017.3 |
| 20260902042901 | 74 | 292 | 0.0 | 1.0 | 0.00 | 0.00 | 0.00 | 89 | 1017.2 |
| 20260902042359 | 74 | 298 | 0.0 | 2.0 | 0.00 | 0.00 | 0.00 | 89 | 1017.2 |
| 20260902041859 | 75 | 324 | 1.0 | 2.0 | 0.00 | 0.00 | 0.00 | 90 | 1017.2 |
| 20260902041401 | 75 | 343 | 1.0 | 2.0 | 0.00 | 0.00 | 0.00 | 90 | 1017.3 |
| 20260902040900 | 75 | 358 | 1.0 | 2.0 | 0.00 | 0.00 | 0.00 | 89 | 1017.3 |
| 20260902040359 | 75 | 100 | 2.0 | 2.0 | 0.00 | 0.00 | 0.00 | 88 | 1017.4 |
| 20260902035900 | 76 | 279 | 2.0 | 3.0 | 0.00 | 0.00 | 0.00 | 87 | 1017.4 |
| 20260902035400 | 76 | 95 | 0.0 | 1.0 | 0.00 | 0.00 | 0.00 | 86 | 1017.4 |
| 20260902034859 | 76 | 319 | 1.0 | 3.0 | 0.00 | 0.00 | 0.00 | 86 | 1017.4 |
| 20260902034359 | 76 | 58 | 0.0 | 0.0 | 0.00 | 0.00 | 0.00 | 85 | 1017.4 |
| 20260902033902 | 76 | 305 | 0.0 | 1.0 | 0.00 | 0.00 | 0.00 | 86 | 1017.4 |
| 20260902033359 | 76 | 3 | 0.0 | 1.0 | 0.00 | 0.00 | 0.00 | 87 | 1017.4 |
| 20260902032901 | 76 | 360 | 0.0 | 0.0 | 0.00 | 0.00 | 0.00 | 86 | 1017.5 |
| 20260902032359 | 76 | 339 | 0.0 | 1.0 | 0.00 | 0.00 | 0.00 | 86 | 1017.5 |
| 20260902031902 | 76 | 360 | 0.0 | 0.0 | 0.00 | 0.00 | 0.00 | 86 | 1017.5 |
| 20260902031400 | 77 | 288 | 1.0 | 2.0 | 0.00 | 0.00 | 0.00 | 86 | 1017.5 |
| 20260902030859 | 77 | 10 | 0.0 | 2.0 | 0.00 | 0.00 | 0.00 | 85 | 1017.5 |
| 20260902030400 | 77 | 27 | 0.0 | 2.0 | 0.00 | 0.00 | 0.00 | 85 | 1017.4 |
| 20260902025859 | 77 | 360 | 0.0 | 0.0 | 0.00 | 0.00 | 0.00 | 84 | 1017.4 |
| 20260902025400 | 78 | 98 | 0.0 | 1.0 | 0.00 | 0.00 | 0.00 | 85 | 1017.4 |
| 20260902024859 | 78 | 360 | 0.0 | 0.0 | 0.00 | 0.00 | 0.00 | 83 | 1017.4 |
| 20260902024359 | 78 | 299 | 0.0 | 1.0 | 0.00 | 0.00 | 0.00 | 83 | 1017.4 |
| 20260902023859 | 78 | 360 | 0.0 | 0.0 | 0.00 | 0.00 | 0.00 | 84 | 1017.4 |
| 20260902023359 | 78 | 360 | 0.0 | 0.0 | 0.00 | 0.00 | 0.00 | 84 | 1017.4 |
| 20260902022900 | 78 | 360 | 0.0 | 0.0 | 0.00 | 0.00 | 0.00 | 82 | 1017.4 |
| 20260902022400 | 79 | 323 | 0.0 | 0.0 | 0.00 | 0.00 | 0.00 | 82 | 1017.3 |
| 20260902021900 | 79 | 348 | 0.0 | 0.0 | 0.00 | 0.00 | 0.00 | 81 | 1017.3 |
| 20260902021400 | 79 | 292 | 1.0 | 2.0 | 0.00 | 0.00 | 0.00 | 81 | 1017.2 |
| 20260902020900 | 79 | 296 | 2.0 | 2.0 | 0.00 | 0.00 | 0.00 | 81 | 1017.2 |
| 20260902020359 | 80 | 303 | 1.0 | 2.0 | 0.00 | 0.00 | 0.00 | 81 | 1017.1 |
| 20260902015900 | 80 | 14 | 0.0 | 0.0 | 0.00 | 0.00 | 0.00 | 81 | 1017.1 |
| 20260902015400 | 80 | 306 | 1.0 | 2.0 | 0.00 | 0.00 | 0.00 | 81 | 1017.0 |
| 20260902014900 | 80 | 298 | 0.0 | 2.0 | 0.00 | 0.00 | 0.00 | 81 | 1017.0 |
| 20260902014401 | 80 | 14 | 0.0 | 0.0 | 0.00 | 0.00 | 0.00 | 80 | 1016.9 |
| 20260902013900 | 81 | 35 | 0.0 | 1.0 | 0.00 | 0.00 | 0.00 | 79 | 1016.9 |
| 20260902013400 | 81 | 72 | 0.0 | 1.0 | 0.00 | 0.00 | 0.00 | 79 | 1017.0 |
| 20260902012901 | 82 | 357 | 0.0 | 0.0 | 0.00 | 0.00 | 0.00 | 78 | 1016.9 |
| 20260902012401 | 82 | 299 | 2.0 | 2.0 | 0.00 | 0.00 | 0.00 | 77 | 1016.9 |
| 20260902011900 | 82 | 313 | 0.0 | 2.0 | 0.00 | 0.00 | 0.00 | 76 | 1016.9 |
| 20260902011359 | 83 | 312 | 0.0 | 2.0 | 0.00 | 0.00 | 0.00 | 75 | 1016.8 |
| 20260902010900 | 83 | 300 | 2.0 | 2.0 | 0.00 | 0.00 | 0.00 | 73 | 1016.7 |
| 20260902010400 | 83 | 221 | 1.0 | 2.0 | 0.00 | 0.00 | 0.00 | 73 | 1016.7 |
| 20260902005859 | 84 | 287 | 1.0 | 2.0 | 0.00 | 0.00 | 0.00 | 72 | 1016.6 |
| 20260902005359 | 84 | 304 | 0.0 | 0.0 | 0.00 | 0.00 | 0.00 | 71 | 1016.6 |
| 20260902004859 | 85 | 311 | 1.0 | 2.0 | 0.00 | 0.00 | 0.00 | 70 | 1016.6 |
| 20260902004359 | 86 | 310 | 2.0 | 2.0 | 0.00 | 0.00 | 0.00 | 68 | 1016.5 |
| 20260902003900 | 86 | 305 | 2.0 | 3.0 | 0.00 | 0.00 | 0.00 | 67 | 1016.5 |
| 20260902003359 | 87 | 303 | 2.0 | 2.0 | 0.00 | 0.00 | 0.00 | 67 | 1016.5 |
| 20260902002859 | 88 | 104 | 1.0 | 1.0 | 0.00 | 0.00 | 0.00 | 65 | 1016.5 |
| 20260902002359 | 89 | 95 | 1.0 | 2.0 | 0.00 | 0.00 | 0.00 | 64 | 1016.4 |
| 20260902001900 | 90 | 112 | 1.0 | 2.0 | 0.00 | 0.00 | 0.00 | 62 | 1016.4 |
| 20260902001400 | 91 | 107 | 2.0 | 2.0 | 0.00 | 0.00 | 0.00 | 60 | 1016.4 |
| 20260902000859 | 92 | 109 | 2.0 | 2.0 | 0.00 | 0.00 | 0.00 | 58 | 1016.4 |
| 20260902000400 | 92 | 113 | 1.0 | 2.0 | 0.00 | 0.00 | 0.00 | 57 | 1016.5 |
| 20260901235859 | 93 | 108 | 2.0 | 2.0 | 0.00 | 0.00 | 0.00 | 55 | 1016.5 |
| 20260901235359 | 93 | 114 | 2.0 | 3.0 | 0.00 | 0.00 | 0.00 | 54 | 1016.5 |
| 20260901234859 | 94 | 102 | 2.0 | 2.0 | 0.00 | 0.00 | 0.00 | 54 | 1016.5 |
| 20260901234359 | 94 | 104 | 2.0 | 2.0 | 0.00 | 0.00 | 0.00 | 53 | 1016.6 |
| 20260901233859 | 94 | 116 | 1.0 | 2.0 | 0.00 | 0.00 | 0.00 | 53 | 1016.6 |
| 20260901233359 | 95 | 105 | 2.0 | 3.0 | 0.00 | 0.00 | 0.00 | 51 | 1016.6 |
| 20260901232859 | 95 | 97 | 2.0 | 3.0 | 0.00 | 0.00 | 0.00 | 51 | 1016.6 |
| 20260901232359 | 95 | 93 | 2.0 | 3.0 | 0.00 | 0.00 | 0.00 | 50 | 1016.6 |
| 20260901231900 | 96 | 109 | 2.0 | 4.0 | 0.00 | 0.00 | 0.00 | 48 | 1016.6 |
| 20260901231359 | 96 | 112 | 2.0 | 3.0 | 0.00 | 0.00 | 0.00 | 47 | 1016.6 |
| 20260901230859 | 96 | 114 | 3.0 | 4.0 | 0.00 | 0.00 | 0.00 | 47 | 1016.6 |
| 20260901230359 | 95 | 116 | 3.0 | 3.0 | 0.00 | 0.00 | 0.00 | 46 | 1016.6 |
| 20260901225900 | 96 | 110 | 3.0 | 4.0 | 0.00 | 0.00 | 0.00 | 47 | 1016.6 |
| 20260901225359 | 96 | 103 | 3.0 | 5.0 | 0.00 | 0.00 | 0.00 | 45 | 1016.5 |
| 20260901224900 | 96 | 123 | 4.0 | 4.0 | 0.00 | 0.00 | 0.00 | 44 | 1016.5 |
| 20260901224400 | 97 | 146 | 2.0 | 2.0 | 0.00 | 0.00 | 0.00 | 42 | 1016.6 |
| 20260901223900 | 96 | 102 | 2.0 | 3.0 | 0.00 | 0.00 | 0.00 | 42 | 1016.6 |
| 20260901223359 | 96 | 123 | 4.0 | 5.0 | 0.00 | 0.00 | 0.00 | 42 | 1016.6 |
| 20260901222859 | 96 | 79 | 3.0 | 4.0 | 0.00 | 0.00 | 0.00 | 43 | 1016.5 |
| 20260901222359 | 96 | 115 | 4.0 | 5.0 | 0.00 | 0.00 | 0.00 | 42 | 1016.5 |
| 20260901221904 | 96 | 115 | 3.0 | 5.0 | 0.00 | 0.00 | 0.00 | 43 | 1016.5 |
| 20260901221359 | 96 | 109 | 3.0 | 4.0 | 0.00 | 0.00 | 0.00 | 43 | 1016.5 |
| 20260901220859 | 96 | 108 | 5.0 | 7.0 | 0.00 | 0.00 | 0.00 | 44 | 1016.5 |
| 20260901220359 | 96 | 134 | 3.0 | 5.0 | 0.00 | 0.00 | 0.00 | 43 | 1016.5 |
| 20260901215859 | 97 | 123 | 5.0 | 7.0 | 0.00 | 0.00 | 0.00 | 42 | 1016.5 |
| 20260901215400 | 97 | 108 | 4.0 | 5.0 | 0.00 | 0.00 | 0.00 | 42 | 1016.5 |
| 20260901214900 | 97 | 106 | 4.0 | 6.0 | 0.00 | 0.00 | 0.00 | 42 | 1016.5 |
| 20260901214402 | 97 | 100 | 3.0 | 4.0 | 0.00 | 0.00 | 0.00 | 43 | 1016.5 |
| 20260901213900 | 97 | 127 | 5.0 | 6.0 | 0.00 | 0.00 | 0.00 | 44 | 1016.5 |
| 20260901213401 | 97 | 110 | 4.0 | 5.0 | 0.00 | 0.00 | 0.00 | 43 | 1016.6 |
| 20260901212901 | 97 | 116 | 4.0 | 5.0 | 0.00 | 0.00 | 0.00 | 44 | 1016.6 |
| 20260901212359 | 96 | 119 | 5.0 | 6.0 | 0.00 | 0.00 | 0.00 | 43 | 1016.6 |
| 20260901211859 | 96 | 115 | 4.0 | 6.0 | 0.00 | 0.00 | 0.00 | 43 | 1016.6 |
| 20260901211359 | 96 | 128 | 6.0 | 8.0 | 0.00 | 0.00 | 0.00 | 43 | 1016.7 |
| 20260901210901 | 96 | 105 | 2.0 | 2.0 | 0.00 | 0.00 | 0.00 | 44 | 1016.7 |
| 20260901210402 | 96 | 70 | 5.0 | 6.0 | 0.00 | 0.00 | 0.00 | 45 | 1016.7 |
| 20260901205900 | 96 | 215 | 3.0 | 5.0 | 0.00 | 0.00 | 0.00 | 45 | 1016.7 |
| 20260901205359 | 95 | 71 | 3.0 | 4.0 | 0.00 | 0.00 | 0.00 | 45 | 1016.7 |
| 20260901204900 | 95 | 37 | 4.0 | 5.0 | 0.00 | 0.00 | 0.00 | 46 | 1016.8 |
| 20260901204359 | 96 | 90 | 4.0 | 5.0 | 0.00 | 0.00 | 0.00 | 47 | 1016.8 |
| 20260901203859 | 97 | 114 | 5.0 | 6.0 | 0.00 | 0.00 | 0.00 | 45 | 1016.8 |
| 20260901203359 | 97 | 87 | 2.0 | 4.0 | 0.00 | 0.00 | 0.00 | 44 | 1016.8 |
| 20260901202859 | 96 | 244 | 4.0 | 5.0 | 0.00 | 0.00 | 0.00 | 44 | 1016.8 |
| 20260901202359 | 96 | 107 | 4.0 | 6.0 | 0.00 | 0.00 | 0.00 | 46 | 1016.9 |
| 20260901201859 | 96 | 296 | 4.0 | 5.0 | 0.00 | 0.00 | 0.00 | 45 | 1017.0 |
| 20260901201359 | 95 | 86 | 4.0 | 5.0 | 0.00 | 0.00 | 0.00 | 46 | 1017.1 |
| 20260901200859 | 96 | 94 | 6.0 | 7.0 | 0.00 | 0.00 | 0.00 | 46 | 1017.1 |
| 20260901200359 | 94 | 164 | 2.0 | 3.0 | 0.00 | 0.00 | 0.00 | 48 | 1017.2 |
| 20260901195900 | 94 | 127 | 2.0 | 4.0 | 0.00 | 0.00 | 0.00 | 50 | 1017.3 |
| 20260901195359 | 94 | 119 | 4.0 | 6.0 | 0.00 | 0.00 | 0.00 | 49 | 1017.3 |
| 20260901194900 | 95 | 93 | 2.0 | 3.0 | 0.00 | 0.00 | 0.00 | 46 | 1017.3 |
| 20260901194400 | 95 | 93 | 5.0 | 8.0 | 0.00 | 0.00 | 0.00 | 47 | 1017.4 |
| 20260901193900 | 95 | 64 | 6.0 | 9.0 | 0.00 | 0.00 | 0.00 | 47 | 1017.4 |
| 20260901193359 | 95 | 81 | 5.0 | 6.0 | 0.00 | 0.00 | 0.00 | 49 | 1017.4 |
| 20260901192900 | 96 | 90 | 5.0 | 6.0 | 0.00 | 0.00 | 0.00 | 47 | 1017.4 |
| 20260901192400 | 95 | 71 | 2.0 | 4.0 | 0.00 | 0.00 | 0.00 | 47 | 1017.4 |
| 20260901191900 | 95 | 80 | 3.0 | 5.0 | 0.00 | 0.00 | 0.00 | 47 | 1017.6 |
| 20260901191400 | 95 | 69 | 6.0 | 8.0 | 0.00 | 0.00 | 0.00 | 48 | 1017.6 |
| 20260901190859 | 94 | 39 | 5.0 | 6.0 | 0.00 | 0.00 | 0.00 | 48 | 1017.7 |
| 20260901190400 | 94 | 32 | 4.0 | 6.0 | 0.00 | 0.00 | 0.00 | 51 | 1017.9 |
| 20260901185859 | 94 | 88 | 5.0 | 6.0 | 0.00 | 0.00 | 0.00 | 50 | 1017.9 |
| 20260901185359 | 93 | 360 | 3.0 | 4.0 | 0.00 | 0.00 | 0.00 | 50 | 1018.0 |
| 20260901184900 | 93 | 44 | 2.0 | 5.0 | 0.00 | 0.00 | 0.00 | 53 | 1018.0 |
| 20260901184400 | 93 | 337 | 2.0 | 3.0 | 0.00 | 0.00 | 0.00 | 53 | 1018.0 |
| 20260901183859 | 93 | 346 | 3.0 | 4.0 | 0.00 | 0.00 | 0.00 | 53 | 1018.1 |
| 20260901183401 | 94 | 323 | 3.0 | 5.0 | 0.00 | 0.00 | 0.00 | 51 | 1018.1 |
| 20260901182901 | 95 | 46 | 4.0 | 7.0 | 0.00 | 0.00 | 0.00 | 50 | 1018.1 |
| 20260901182359 | 95 | 257 | 4.0 | 7.0 | 0.00 | 0.00 | 0.00 | 49 | 1018.2 |
| 20260901181900 | 95 | 278 | 6.0 | 8.0 | 0.00 | 0.00 | 0.00 | 48 | 1018.2 |
| 20260901181359 | 94 | 107 | 3.0 | 4.0 | 0.00 | 0.00 | 0.00 | 49 | 1018.3 |
| 20260901180859 | 94 | 123 | 5.0 | 6.0 | 0.00 | 0.00 | 0.00 | 50 | 1018.4 |
| 20260901180359 | 94 | 100 | 5.0 | 6.0 | 0.00 | 0.00 | 0.00 | 50 | 1018.4 |
| 20260901175905 | 94 | 320 | 2.0 | 4.0 | 0.00 | 0.00 | 0.00 | 50 | 1018.5 |
| 20260901175401 | 94 | 75 | 6.0 | 8.0 | 0.00 | 0.00 | 0.00 | 50 | 1018.5 |
| 20260901174900 | 94 | 6 | 3.0 | 6.0 | 0.00 | 0.00 | 0.00 | 51 | 1018.6 |
| 20260901174400 | 93 | 76 | 2.0 | 3.0 | 0.00 | 0.00 | 0.00 | 51 | 1018.6 |
| 20260901173900 | 93 | 91 | 4.0 | 6.0 | 0.00 | 0.00 | 0.00 | 52 | 1018.7 |
| 20260901173359 | 94 | 39 | 2.0 | 4.0 | 0.00 | 0.00 | 0.00 | 52 | 1018.7 |
| 20260901172859 | 94 | 29 | 4.0 | 5.0 | 0.00 | 0.00 | 0.00 | 51 | 1018.8 |
| 20260901172400 | 94 | 251 | 3.0 | 5.0 | 0.00 | 0.00 | 0.00 | 52 | 1018.8 |
| 20260901171859 | 94 | 256 | 5.0 | 8.0 | 0.00 | 0.00 | 0.00 | 52 | 1018.9 |
| 20260901171400 | 93 | 99 | 4.0 | 4.0 | 0.00 | 0.00 | 0.00 | 53 | 1019.0 |
| 20260901170900 | 92 | 75 | 1.0 | 2.0 | 0.00 | 0.00 | 0.00 | 54 | 1019.1 |
| 20260901170400 | 92 | 304 | 7.0 | 9.0 | 0.00 | 0.00 | 0.00 | 54 | 1019.2 |
| 20260901165901 | 92 | 320 | 6.0 | 8.0 | 0.00 | 0.00 | 0.00 | 53 | 1019.3 |
| 20260901165359 | 92 | 338 | 4.0 | 5.0 | 0.00 | 0.00 | 0.00 | 54 | 1019.4 |
| 20260901164900 | 92 | 300 | 7.0 | 9.0 | 0.00 | 0.00 | 0.00 | 56 | 1019.5 |
| 20260901164359 | 92 | 225 | 4.0 | 5.0 | 0.00 | 0.00 | 0.00 | 56 | 1019.5 |
| 20260901163900 | 93 | 270 | 4.0 | 9.0 | 0.00 | 0.00 | 0.00 | 54 | 1019.4 |
| 20260901163359 | 92 | 302 | 7.0 | 9.0 | 0.00 | 0.00 | 0.00 | 54 | 1019.4 |
| 20260901162859 | 93 | 260 | 4.0 | 6.0 | 0.00 | 0.00 | 0.00 | 54 | 1019.5 |
| 20260901162359 | 92 | 88 | 1.0 | 2.0 | 0.00 | 0.00 | 0.00 | 55 | 1019.5 |
| 20260901161900 | 92 | 306 | 4.0 | 5.0 | 0.00 | 0.00 | 0.00 | 55 | 1019.6 |
| 20260901161400 | 91 | 260 | 4.0 | 6.0 | 0.00 | 0.00 | 0.00 | 57 | 1019.6 |
| 20260901160901 | 92 | 187 | 5.0 | 6.0 | 0.00 | 0.00 | 0.00 | 57 | 1019.6 |
| 20260901160400 | 92 | 295 | 5.0 | 7.0 | 0.00 | 0.00 | 0.00 | 56 | 1019.6 |
| 20260901155900 | 92 | 167 | 3.0 | 5.0 | 0.00 | 0.00 | 0.00 | 55 | 1019.7 |
| 20260901155359 | 91 | 284 | 2.0 | 4.0 | 0.00 | 0.00 | 0.00 | 55 | 1019.8 |
| 20260901154859 | 91 | 232 | 4.0 | 5.0 | 0.00 | 0.00 | 0.00 | 58 | 1019.7 |
| 20260901154400 | 90 | 149 | 2.0 | 4.0 | 0.00 | 0.00 | 0.00 | 59 | 1019.7 |
| 20260901153859 | 90 | 218 | 4.0 | 5.0 | 0.00 | 0.00 | 0.00 | 59 | 1019.7 |
| 20260901153400 | 90 | 226 | 3.0 | 4.0 | 0.00 | 0.00 | 0.00 | 59 | 1019.8 |
| 20260901152900 | 90 | 201 | 4.0 | 5.0 | 0.00 | 0.00 | 0.00 | 60 | 1019.8 |
| 20260901152401 | 90 | 125 | 5.0 | 6.0 | 0.00 | 0.00 | 0.00 | 60 | 1019.8 |
| 20260901151904 | 89 | 201 | 4.0 | 6.0 | 0.00 | 0.00 | 0.00 | 60 | 1019.7 |
| 20260901151400 | 89 | 143 | 2.0 | 3.0 | 0.00 | 0.00 | 0.00 | 61 | 1019.7 |
| 20260901150859 | 89 | 211 | 5.0 | 6.0 | 0.00 | 0.00 | 0.00 | 62 | 1019.7 |
| 20260901150407 | 88 | 186 | 3.0 | 5.0 | 0.00 | 0.00 | 0.00 | 64 | 1019.7 |
| 20260901145859 | 88 | 211 | 3.0 | 5.0 | 0.00 | 0.00 | 0.00 | 65 | 1019.7 |
| 20260901145400 | 88 | 186 | 3.0 | 4.0 | 0.00 | 0.00 | 0.00 | 65 | 1019.6 |
| 20260901144900 | 87 | 227 | 2.0 | 4.0 | 0.00 | 0.00 | 0.00 | 67 | 1019.7 |
| 20260901144359 | 87 | 199 | 2.0 | 3.0 | 0.00 | 0.00 | 0.00 | 68 | 1019.7 |
| 20260901143905 | 86 | 132 | 3.0 | 5.0 | 0.00 | 0.00 | 0.00 | 69 | 1019.7 |
| 20260901143359 | 86 | 208 | 3.0 | 4.0 | 0.00 | 0.00 | 0.00 | 69 | 1019.6 |
| 20260901142900 | 86 | 175 | 3.0 | 4.0 | 0.00 | 0.00 | 0.00 | 70 | 1019.6 |